STARLINK-36969

operational
NORAD ID: 70104 Constellation: starlink
LEOCIRCULAR

关于 STARLINK-36969

正在加载描述...

实时位置

正在加载3D地球...

即将过境

高度历史

Altitude vs Time

uPlot chart will show altitude changes over time

两行轨道根数

1 70104C 26050A 26073.73243056 .00557520 00000+0 73524-3 0 733
2 70104 53.1639 257.6156 0011570 268.1073 224.8243 16.05379532 11
Epoch: Mar 14, 2026 • Age: 47 hours